Change the Weather History Date:

Thursday, June 20, 2013

  Actual Average Record
Temperature  
Mean Temperature 80 °F -  
Max Temperature 88 °F 85 °F 96 °F (1998)
Min Temperature 73 °F 70 °F 66 °F (2005)
Cooling Degree Days 16    
Growing Degree Days 30 (Base 50)    
Moisture  
Dew Point 70 °F    
Average Humidity 70    
Maximum Humidity 87    
Minimum Humidity 49    
Precipitation  
Precipitation 0.00 in - - ()
Sea Level Pressure  
Sea Level Pressure 30.08 in    
Wind  
Wind Speed 4 mph (North)    
Max Wind Speed 9 mph    
Max Gust Speed -    
Visibility 10 miles    
Events      
Averages and records for this station are not official NWS values.
T = Trace of Precipitation, MM = Missing Value Source: NWS Daily Summary

Daily Weather History Graph

Daily Weather History Graph

Search for Another Location

Airport or City:

Trip Planner

Search our weather history database for the weather conditions in past years. The results will help you decide how hot, cold, wet, or windy it might be!

Date:

Astronomy

Jun. 20, 2013 Rise Set
Actual Time 5:50 AM CDT 7:57 PM CDT
Civil Twilight 5:22 AM CDT 8:25 PM CDT
Nautical Twilight 4:48 AM CDT 8:59 PM CDT
Astronomical Twilight 4:12 AM CDT 9:35 PM CDT
Moon 5:06 PM CDT (6/20) 3:07 AM CDT (6/20)
Length of Visible Light 15h 03m
Length of Day
14h 07m
Waxing Gibbous, 89% of the Moon is Illuminated
Jun 20
Waxing Gibbous
Jun 23
Full
Jun 29
Last Quarter
Jul 8
New
Jul 15
First Quarter

Hourly Weather History & Observations

Time (CDT) Temp. Heat Index Dew Point Humidity Pressure Visibility Wind Dir Wind Speed Gust Speed Precip Events Conditions
12:53 AM - - - N/A% 30.06 in - North - - N/A   Unknown
1:53 AM - - - N/A% 30.05 in - North - - N/A   Unknown
2:53 AM - - - N/A% 30.04 in - North - - N/A   Unknown
3:17 AM - - - N/A% 30.04 in 10.0 mi Calm Calm - N/A   Partly Cloudy
3:53 AM - - - N/A% 30.05 in 10.0 mi Calm Calm - N/A   Scattered Clouds
4:53 AM - - - N/A% 30.06 in 10.0 mi Variable 3.5 mph - N/A   Partly Cloudy
5:53 AM - - - N/A% 30.06 in 10.0 mi Variable 3.5 mph - N/A   Partly Cloudy
6:53 AM - - - N/A% 30.09 in 10.0 mi Variable 3.5 mph - N/A   Partly Cloudy
7:53 AM - - - N/A% 30.11 in 10.0 mi Variable 4.6 mph - N/A   Partly Cloudy
8:53 AM 82.0 °F 87.9 °F 73.9 °F 76% 30.12 in 10.0 mi NE 6.9 mph - N/A   Scattered Clouds
9:53 AM 82.9 °F 88.0 °F 72.0 °F 69% 30.12 in 10.0 mi NNE 5.8 mph - N/A   Scattered Clouds
10:53 AM 84.9 °F 91.4 °F 73.0 °F 67% 30.11 in 10.0 mi NE 8.1 mph - N/A   Scattered Clouds
11:53 AM 87.1 °F 94.5 °F 73.0 °F 63% 30.10 in 10.0 mi NE 6.9 mph - N/A   Scattered Clouds
12:53 PM 87.1 °F 92.8 °F 71.1 °F 59% 30.09 in 10.0 mi NE 8.1 mph - N/A   Mostly Cloudy
1:53 PM 86.0 °F 90.7 °F 70.0 °F 59% 30.08 in 10.0 mi ENE 6.9 mph - N/A   Mostly Cloudy
2:53 PM 88.0 °F 92.1 °F 69.1 °F 53% 30.06 in 10.0 mi ENE 9.2 mph - N/A   Mostly Cloudy
3:53 PM 88.0 °F 90.7 °F 66.9 °F 49% 30.06 in 10.0 mi ENE 4.6 mph - N/A   Mostly Cloudy
4:53 PM 77.0 °F - 70.0 °F 79% 30.07 in 10.0 mi West 9.2 mph - N/A   Mostly Cloudy
5:53 PM 78.1 °F - 69.1 °F 74% 30.05 in 10.0 mi West 3.5 mph - N/A   Clear
6:53 PM 79.0 °F - 70.0 °F 74% 30.05 in 10.0 mi Variable 3.5 mph - N/A   Clear
7:53 PM 78.1 °F - 69.1 °F 74% 30.07 in 10.0 mi West 4.6 mph - N/A   Partly Cloudy
8:53 PM 78.1 °F - 69.1 °F 74% 30.08 in 10.0 mi West 4.6 mph - N/A   Partly Cloudy
9:53 PM 75.9 °F - 69.1 °F 79% 30.09 in 10.0 mi West 3.5 mph - N/A   Clear
10:53 PM 73.9 °F - 70.0 °F 87% 30.11 in 10.0 mi Calm Calm - N/A   Clear
11:53 PM 73.0 °F - 69.1 °F 87% 30.10 in 10.0 mi WNW 3.5 mph - N/A   Clear